Time,TemperatureF,DewpointF,PressureIn,WindDirection,WindDirectionDegrees,WindSpeedMPH,WindSpeedGustMPH,Humidity,HourlyPrecipIn,Conditions,Clouds,dailyrainin,SolarRadiationWatts/m^2,SoftwareType,DateUTC
2013-06-14 00:02:00,55.0,51.0,30.14,ENE,74,3.0,5.0,85,0.00,,,0.01,0.000000,,2013-06-14 05:02:00,
2013-06-14 00:11:00,55.0,51.0,30.14,ENE,59,3.0,5.0,85,0.00,,,0.01,0.000000,,2013-06-14 05:11:00,
2013-06-14 00:22:00,55.0,51.0,30.14,NE,50,2.0,5.0,85,0.00,,,0.00,0.000000,,2013-06-14 05:22:00,
2013-06-14 00:34:00,55.0,51.0,30.14,NNE,32,4.0,7.0,86,0.00,,,0.00,0.000000,,2013-06-14 05:34:00,
2013-06-14 00:43:00,55.0,51.0,30.14,NE,37,4.0,8.0,85,0.00,,,0.00,0.000000,,2013-06-14 05:43:00,
2013-06-14 00:52:00,55.0,51.0,30.14,ENE,60,3.0,7.0,85,0.00,,,0.00,0.000000,,2013-06-14 05:52:00,
2013-06-14 01:02:00,55.0,51.0,30.14,ENE,63,4.0,8.0,85,0.00,,,0.00,0.000000,,2013-06-14 06:02:00,
2013-06-14 01:12:00,55.0,51.0,30.14,ENE,63,3.0,7.0,85,0.00,,,0.00,0.000000,,2013-06-14 06:12:00,
2013-06-14 01:22:00,55.0,51.0,30.14,ENE,66,3.0,6.0,86,0.00,,,0.00,0.000000,,2013-06-14 06:22:00,
2013-06-14 01:33:00,55.0,51.0,30.14,ENE,74,3.0,9.0,86,0.00,,,0.00,0.000000,,2013-06-14 06:33:00,
2013-06-14 01:43:00,55.0,51.0,30.14,NE,34,4.0,7.0,86,0.00,,,0.00,0.000000,,2013-06-14 06:43:00,
2013-06-14 01:52:00,55.0,51.0,30.14,NE,53,3.0,6.0,86,0.00,,,0.00,0.000000,,2013-06-14 06:52:00,
2013-06-14 02:02:00,55.0,51.0,30.14,NE,55,3.0,7.0,85,0.00,,,0.00,0.000000,,2013-06-14 07:02:00,
2013-06-14 02:12:00,55.0,51.0,30.13,NE,44,3.0,6.0,85,0.00,,,0.00,0.000000,,2013-06-14 07:12:00,
2013-06-14 02:22:00,55.0,51.0,30.13,NE,49,3.0,7.0,85,0.00,,,0.00,0.000000,,2013-06-14 07:22:00,
2013-06-14 02:33:00,55.0,51.0,30.13,NE,44,3.0,6.0,85,0.00,,,0.00,0.000000,,2013-06-14 07:33:00,
2013-06-14 02:43:00,55.0,51.0,30.14,NNE,32,3.0,6.0,86,0.00,,,0.00,0.000000,,2013-06-14 07:43:00,
2013-06-14 02:53:00,55.0,51.0,30.14,NE,46,2.0,5.0,86,0.00,,,0.00,0.000000,,2013-06-14 07:53:00,
2013-06-14 03:02:00,55.0,51.0,30.14,NNE,14,2.0,5.0,85,0.00,,,0.00,0.000000,,2013-06-14 08:02:00,
2013-06-14 03:12:00,55.0,51.0,30.14,NNE,24,2.0,6.0,85,0.00,,,0.00,0.000000,,2013-06-14 08:12:00,
2013-06-14 03:23:00,55.0,51.0,30.14,North,9,3.0,5.0,85,0.00,,,0.00,0.000000,,2013-06-14 08:23:00,
2013-06-14 03:33:00,55.0,50.0,30.14,NNE,21,4.0,8.0,84,0.00,,,0.00,0.000000,,2013-06-14 08:33:00,
2013-06-14 03:43:00,55.0,50.0,30.14,NNE,22,4.0,7.0,84,0.00,,,0.00,0.000000,,2013-06-14 08:43:00,
2013-06-14 03:53:00,55.0,51.0,30.15,NE,44,3.0,7.0,85,0.00,,,0.00,0.000000,,2013-06-14 08:53:00,
2013-06-14 04:02:00,55.0,51.0,30.15,NNE,22,3.0,6.0,85,0.00,,,0.00,0.000000,,2013-06-14 09:02:00,
2013-06-14 04:12:00,55.0,51.0,30.15,NNE,24,3.0,6.0,85,0.00,,,0.00,0.000000,,2013-06-14 09:12:00,
2013-06-14 04:22:00,55.0,51.0,30.15,NNE,17,3.0,6.0,85,0.00,,,0.00,0.000000,,2013-06-14 09:22:00,
2013-06-14 04:33:00,55.0,50.0,30.14,NE,48,4.0,7.0,84,0.00,,,0.00,0.000000,,2013-06-14 09:33:00,
2013-06-14 04:43:00,55.0,50.0,30.15,NE,46,3.0,7.0,84,0.00,,,0.00,0.000000,,2013-06-14 09:43:00,
2013-06-14 04:53:00,54.0,49.0,30.14,ENE,67,4.0,7.0,84,0.00,,,0.00,0.000000,,2013-06-14 09:53:00,
2013-06-14 05:01:00,54.0,49.0,30.15,NNE,24,3.0,7.0,84,0.00,,,0.00,0.000000,,2013-06-14 10:01:00,
2013-06-14 05:11:00,54.0,49.0,30.15,NE,46,4.0,7.0,83,0.00,,,0.00,0.000000,,2013-06-14 10:11:00,
2013-06-14 05:22:00,54.0,49.0,30.15,ENE,60,5.0,9.0,83,0.00,,,0.00,0.000000,,2013-06-14 10:22:00,
2013-06-14 05:34:00,54.0,49.0,30.15,ENE,67,5.0,10.0,82,0.00,,,0.00,7.000000,,2013-06-14 10:34:00,
2013-06-14 05:43:00,54.0,49.0,30.14,East,79,4.0,7.0,82,0.00,,,0.00,11.000000,,2013-06-14 10:43:00,
2013-06-14 05:52:00,54.0,49.0,30.14,ENE,67,3.0,7.0,83,0.00,,,0.00,16.000000,,2013-06-14 10:52:00,
2013-06-14 06:02:00,54.0,49.0,30.15,ENE,69,5.0,9.0,83,0.00,,,0.00,19.000000,,2013-06-14 11:02:00,
2013-06-14 06:11:00,54.0,49.0,30.15,ENE,68,5.0,9.0,83,0.00,,,0.00,25.000000,,2013-06-14 11:11:00,
2013-06-14 06:22:00,55.0,49.0,30.16,ENE,74,2.0,7.0,81,0.00,,,0.00,26.000000,,2013-06-14 11:22:00,
2013-06-14 06:32:00,56.0,50.0,30.16,ENE,65,3.0,6.0,79,0.00,,,0.00,30.000000,,2013-06-14 11:32:00,
2013-06-14 06:43:00,56.0,49.0,30.16,East,79,4.0,9.0,78,0.00,,,0.00,32.000000,,2013-06-14 11:43:00,
2013-06-14 06:52:00,56.0,49.0,30.17,ENE,61,2.0,10.0,77,0.00,,,0.00,35.000000,,2013-06-14 11:52:00,
2013-06-14 07:02:00,57.0,50.0,30.18,NE,55,1.0,5.0,76,0.00,,,0.00,35.000000,,2013-06-14 12:02:00,
2013-06-14 07:11:00,57.0,49.0,30.19,NE,42,3.0,8.0,74,0.00,,,0.00,40.000000,,2013-06-14 12:11:00,
2013-06-14 07:22:00,57.0,49.0,30.20,East,85,4.0,8.0,74,0.00,,,0.00,42.000000,,2013-06-14 12:22:00,
2013-06-14 07:32:00,58.0,49.0,30.20,NE,38,4.0,7.0,73,0.00,,,0.00,44.000000,,2013-06-14 12:32:00,
2013-06-14 07:43:00,58.0,49.0,30.19,ENE,62,6.0,10.0,73,0.00,,,0.00,47.000000,,2013-06-14 12:43:00,
2013-06-14 07:52:00,58.0,49.0,30.19,NE,48,4.0,9.0,73,0.00,,,0.00,49.000000,,2013-06-14 12:52:00,
2013-06-14 08:02:00,58.0,49.0,30.19,East,90,6.0,10.0,73,0.00,,,0.00,123.000000,,2013-06-14 13:02:00,
2013-06-14 08:11:00,59.0,50.0,30.20,ENE,77,4.0,9.0,73,0.00,,,0.00,63.000000,,2013-06-14 13:11:00,
2013-06-14 08:22:00,59.0,51.0,30.19,ENE,63,6.0,11.0,74,0.00,,,0.00,54.000000,,2013-06-14 13:22:00,
2013-06-14 08:33:00,60.0,51.0,30.19,ENE,65,4.0,11.0,73,0.00,,,0.00,56.000000,,2013-06-14 13:33:00,
2013-06-14 08:43:00,60.0,51.0,30.20,East,100,5.0,10.0,72,0.00,,,0.00,58.000000,,2013-06-14 13:43:00,
2013-06-14 08:52:00,61.0,52.0,30.19,East,82,4.0,9.0,71,0.00,,,0.00,232.000000,,2013-06-14 13:52:00,
2013-06-14 09:02:00,62.0,52.0,30.20,East,79,3.0,7.0,71,0.00,,,0.00,508.000000,,2013-06-14 14:02:00,
2013-06-14 09:11:00,62.0,52.0,30.20,SE,127,2.0,9.0,69,0.00,,,0.00,541.000000,,2013-06-14 14:11:00,
2013-06-14 09:22:00,63.0,53.0,30.21,East,92,1.0,8.0,69,0.00,,,0.00,573.000000,,2013-06-14 14:22:00,
2013-06-14 09:34:00,63.0,53.0,30.21,SSW,209,1.0,6.0,69,0.00,,,0.00,554.000000,,2013-06-14 14:34:00,
2013-06-14 09:43:00,64.0,52.0,30.21,East,98,2.0,4.0,65,0.00,,,0.00,619.000000,,2013-06-14 14:43:00,
2013-06-14 09:52:00,64.0,52.0,30.21,SE,137,2.0,4.0,65,0.00,,,0.00,645.000000,,2013-06-14 14:52:00,
2013-06-14 10:01:00,64.0,53.0,30.21,WSW,258,0.0,4.0,67,0.00,,,0.00,670.000000,,2013-06-14 15:01:00,
2013-06-14 10:11:00,65.0,53.0,30.21,SE,139,1.0,3.0,65,0.00,,,0.00,501.000000,,2013-06-14 15:11:00,
2013-06-14 10:23:00,66.0,54.0,30.21,ESE,105,2.0,6.0,65,0.00,,,0.00,599.000000,,2013-06-14 15:23:00,
2013-06-14 10:33:00,65.0,53.0,30.20,SSE,163,1.0,7.0,66,0.00,,,0.00,700.000000,,2013-06-14 15:33:00,
2013-06-14 10:44:00,66.0,53.0,30.20,East,98,2.0,5.0,63,0.00,,,0.00,735.000000,,2013-06-14 15:44:00,
2013-06-14 10:52:00,67.0,54.0,30.20,South,186,0.0,5.0,63,0.00,,,0.00,795.000000,,2013-06-14 15:52:00,
2013-06-14 11:01:00,67.0,55.0,30.19,South,169,0.0,6.0,65,0.00,,,0.00,807.000000,,2013-06-14 16:01:00,
2013-06-14 11:11:00,67.0,54.0,30.19,East,95,2.0,7.0,63,0.00,,,0.00,821.000000,,2013-06-14 16:11:00,
2013-06-14 11:22:00,68.0,54.0,30.19,ENE,65,2.0,8.0,61,0.00,,,0.00,846.000000,,2013-06-14 16:22:00,
2013-06-14 11:32:00,68.0,54.0,30.19,East,92,3.0,9.0,62,0.00,,,0.00,842.000000,,2013-06-14 16:32:00,
2013-06-14 11:43:00,69.0,55.0,30.19,ESE,114,1.0,7.0,62,0.00,,,0.00,888.000000,,2013-06-14 16:43:00,
2013-06-14 11:52:00,70.0,56.0,30.18,SE,126,1.0,5.0,62,0.00,,,0.00,877.000000,,2013-06-14 16:52:00,
2013-06-14 12:02:00,69.0,56.0,30.18,East,94,1.0,8.0,63,0.00,,,0.00,900.000000,,2013-06-14 17:02:00,
2013-06-14 12:11:00,69.0,55.0,30.18,SSW,212,3.0,5.0,60,0.00,,,0.00,863.000000,,2013-06-14 17:11:00,
2013-06-14 12:22:00,70.0,56.0,30.17,ENE,57,2.0,7.0,61,0.00,,,0.00,926.000000,,2013-06-14 17:22:00,
2013-06-14 12:34:00,70.0,55.0,30.17,SE,129,1.0,7.0,59,0.00,,,0.00,962.000000,,2013-06-14 17:34:00,
2013-06-14 12:43:00,70.0,54.0,30.18,ESE,107,1.0,8.0,56,0.00,,,0.00,1018.000000,,2013-06-14 17:43:00,
2013-06-14 12:53:00,71.0,54.0,30.19,ESE,112,5.0,9.0,54,0.00,,,0.00,981.000000,,2013-06-14 17:53:00,
2013-06-14 13:02:00,70.0,52.0,30.19,ESE,119,0.0,8.0,53,0.00,,,0.00,928.000000,,2013-06-14 18:02:00,
2013-06-14 13:11:00,71.0,54.0,30.19,East,87,1.0,5.0,54,0.00,,,0.00,990.000000,,2013-06-14 18:11:00,
2013-06-14 13:22:00,71.0,51.0,30.19,ESE,109,3.0,7.0,49,0.00,,,0.00,937.000000,,2013-06-14 18:22:00,
2013-06-14 13:32:00,71.0,51.0,30.19,ENE,76,2.0,4.0,50,0.00,,,0.00,960.000000,,2013-06-14 18:32:00,
2013-06-14 13:42:00,72.0,54.0,30.18,ESE,119,3.0,7.0,53,0.00,,,0.00,939.000000,,2013-06-14 18:42:00,
2013-06-14 13:52:00,71.0,51.0,30.18,ESE,113,2.0,6.0,49,0.00,,,0.00,944.000000,,2013-06-14 18:52:00,
2013-06-14 14:01:00,73.0,53.0,30.18,SW,231,1.0,4.0,50,0.00,,,0.00,932.000000,,2013-06-14 19:01:00,
2013-06-14 14:11:00,72.0,51.0,30.17,NE,50,1.0,7.0,48,0.00,,,0.00,872.000000,,2013-06-14 19:11:00,
2013-06-14 14:22:00,73.0,52.0,30.17,ENE,69,3.0,6.0,48,0.00,,,0.00,898.000000,,2013-06-14 19:22:00,
2013-06-14 14:32:00,73.0,51.0,30.17,ESE,110,2.0,5.0,46,0.00,,,0.00,900.000000,,2013-06-14 19:32:00,
2013-06-14 14:43:00,72.0,53.0,30.17,SE,129,3.0,8.0,51,0.00,,,0.00,898.000000,,2013-06-14 19:43:00,
2013-06-14 14:53:00,73.0,53.0,30.16,SE,127,1.0,6.0,49,0.00,,,0.00,851.000000,,2013-06-14 19:53:00,
2013-06-14 15:02:00,73.0,52.0,30.16,East,94,3.0,7.0,47,0.00,,,0.00,809.000000,,2013-06-14 20:02:00,
2013-06-14 15:11:00,73.0,52.0,30.16,SSE,150,1.0,8.0,47,0.00,,,0.00,807.000000,,2013-06-14 20:11:00,
2013-06-14 15:22:00,73.0,52.0,30.16,ESE,103,1.0,5.0,48,0.00,,,0.00,835.000000,,2013-06-14 20:22:00,
2013-06-14 15:33:00,74.0,55.0,30.15,SE,125,1.0,8.0,51,0.00,,,0.00,765.000000,,2013-06-14 20:33:00,
2013-06-14 15:43:00,74.0,52.0,30.15,SE,130,1.0,8.0,47,0.00,,,0.00,775.000000,,2013-06-14 20:43:00,
2013-06-14 15:53:00,74.0,54.0,30.15,ESE,117,4.0,8.0,49,0.00,,,0.00,751.000000,,2013-06-14 20:53:00,
2013-06-14 16:02:00,74.0,53.0,30.14,SSE,150,2.0,8.0,48,0.00,,,0.00,737.000000,,2013-06-14 21:02:00,
2013-06-14 16:11:00,74.0,54.0,30.14,South,187,1.0,7.0,50,0.00,,,0.00,714.000000,,2013-06-14 21:11:00,
2013-06-14 16:22:00,73.0,53.0,30.14,West,263,3.0,5.0,49,0.00,,,0.00,691.000000,,2013-06-14 21:22:00,
2013-06-14 16:34:00,74.0,55.0,30.13,East,82,2.0,8.0,51,0.00,,,0.00,661.000000,,2013-06-14 21:34:00,
2013-06-14 16:42:00,74.0,54.0,30.13,ESE,106,3.0,8.0,50,0.00,,,0.00,601.000000,,2013-06-14 21:42:00,
2013-06-14 16:52:00,74.0,53.0,30.13,East,81,5.0,11.0,48,0.00,,,0.00,615.000000,,2013-06-14 21:52:00,
2013-06-14 17:01:00,73.0,53.0,30.12,ESE,112,7.0,12.0,50,0.00,,,0.00,585.000000,,2013-06-14 22:01:00,
2013-06-14 17:11:00,73.0,53.0,30.11,East,97,6.0,11.0,50,0.00,,,0.00,559.000000,,2013-06-14 22:11:00,
2013-06-14 17:22:00,72.0,53.0,30.11,ESE,121,4.0,13.0,51,0.00,,,0.00,533.000000,,2013-06-14 22:22:00,
2013-06-14 17:33:00,72.0,53.0,30.11,SE,131,3.0,10.0,51,0.00,,,0.00,482.000000,,2013-06-14 22:33:00,
2013-06-14 17:43:00,71.0,51.0,30.11,ESE,122,5.0,10.0,50,0.00,,,0.00,489.000000,,2013-06-14 22:43:00,
2013-06-14 17:53:00,70.0,49.0,30.11,ESE,122,5.0,12.0,47,0.00,,,0.00,445.000000,,2013-06-14 22:53:00,
2013-06-14 18:01:00,70.0,49.0,30.11,SSE,157,3.0,11.0,48,0.00,,,0.00,295.000000,,2013-06-14 23:01:00,
2013-06-14 18:11:00,69.0,47.0,30.11,ESE,105,5.0,11.0,46,0.00,,,0.00,329.000000,,2013-06-14 23:11:00,
2013-06-14 18:22:00,69.0,48.0,30.10,ENE,77,4.0,8.0,47,0.00,,,0.00,339.000000,,2013-06-14 23:22:00,
2013-06-14 18:33:00,69.0,48.0,30.09,SE,131,5.0,10.0,47,0.00,,,0.00,323.000000,,2013-06-14 23:33:00,
2013-06-14 18:43:00,68.0,46.0,30.09,ESE,123,5.0,11.0,46,0.00,,,0.00,299.000000,,2013-06-14 23:43:00,
2013-06-14 18:52:00,67.0,47.0,30.09,ESE,116,3.0,14.0,48,0.00,,,0.00,76.000000,,2013-06-14 23:52:00,
2013-06-14 19:01:00,66.0,47.0,30.09,ESE,120,3.0,9.0,50,0.00,,,0.00,65.000000,,2013-06-15 00:01:00,
2013-06-14 19:11:00,66.0,46.0,30.10,East,82,5.0,9.0,49,0.00,,,0.00,86.000000,,2013-06-15 00:11:00,
2013-06-14 19:22:00,66.0,47.0,30.11,ESE,114,3.0,9.0,50,0.00,,,0.00,60.000000,,2013-06-15 00:22:00,
2013-06-14 19:34:00,65.0,46.0,30.11,SE,134,3.0,9.0,50,0.00,,,0.00,40.000000,,2013-06-15 00:34:00,
2013-06-14 19:43:00,65.0,46.0,30.11,ESE,107,3.0,9.0,51,0.00,,,0.00,33.000000,,2013-06-15 00:43:00,
2013-06-14 19:52:00,65.0,46.0,30.11,SE,130,3.0,10.0,50,0.00,,,0.00,23.000000,,2013-06-15 00:52:00,
2013-06-14 20:01:00,65.0,47.0,30.11,ESE,115,2.0,10.0,52,0.00,,,0.00,19.000000,,2013-06-15 01:01:00,
2013-06-14 20:11:00,64.0,47.0,30.11,SE,130,1.0,8.0,53,0.00,,,0.00,14.000000,,2013-06-15 01:11:00,
2013-06-14 20:22:00,64.0,47.0,30.11,ESE,119,2.0,6.0,53,0.00,,,0.00,12.000000,,2013-06-15 01:22:00,
2013-06-14 20:33:00,64.0,46.0,30.10,SE,125,4.0,8.0,52,0.00,,,0.00,9.000000,,2013-06-15 01:33:00,
2013-06-14 20:43:00,64.0,46.0,30.11,East,80,2.0,8.0,52,0.00,,,0.00,7.000000,,2013-06-15 01:43:00,
2013-06-14 20:54:00,63.0,45.0,30.12,SE,124,3.0,8.0,52,0.00,,,0.00,0.000000,,2013-06-15 01:54:00,
2013-06-14 21:02:00,63.0,45.0,30.11,ESE,110,2.0,5.0,52,0.00,,,0.00,0.000000,,2013-06-15 02:02:00,
2013-06-14 21:11:00,63.0,46.0,30.12,SE,134,1.0,4.0,54,0.00,,,0.00,0.000000,,2013-06-15 02:11:00,
2013-06-14 21:22:00,62.0,45.0,30.12,ESE,103,3.0,5.0,54,0.00,,,0.00,0.000000,,2013-06-15 02:22:00,
2013-06-14 21:33:00,62.0,46.0,30.12,ESE,103,3.0,6.0,55,0.00,,,0.00,0.000000,,2013-06-15 02:33:00,
2013-06-14 21:43:00,62.0,46.0,30.11,SE,132,2.0,8.0,56,0.00,,,0.00,0.000000,,2013-06-15 02:43:00,
2013-06-14 21:53:00,61.0,46.0,30.11,East,98,3.0,9.0,57,0.00,,,0.00,0.000000,,2013-06-15 02:53:00,
2013-06-14 22:01:00,61.0,46.0,30.11,East,92,2.0,7.0,58,0.00,,,0.00,0.000000,,2013-06-15 03:01:00,
2013-06-14 22:11:00,61.0,47.0,30.12,SE,134,2.0,7.0,59,0.00,,,0.00,0.000000,,2013-06-15 03:11:00,
2013-06-14 22:23:00,61.0,47.0,30.12,ESE,119,3.0,10.0,60,0.00,,,0.00,0.000000,,2013-06-15 03:23:00,
2013-06-14 22:32:00,60.0,47.0,30.12,East,100,2.0,7.0,61,0.00,,,0.00,0.000000,,2013-06-15 03:32:00,
2013-06-14 22:43:00,60.0,47.0,30.11,SE,130,3.0,7.0,63,0.00,,,0.00,0.000000,,2013-06-15 03:43:00,
2013-06-14 22:52:00,60.0,47.0,30.11,SE,131,2.0,7.0,63,0.00,,,0.00,0.000000,,2013-06-15 03:52:00,
2013-06-14 23:02:00,59.0,47.0,30.11,SSE,148,1.0,4.0,65,0.00,,,0.00,0.000000,,2013-06-15 04:02:00,
2013-06-14 23:12:00,59.0,48.0,30.10,SE,128,1.0,4.0,66,0.00,,,0.00,0.000000,,2013-06-15 04:12:00,
2013-06-14 23:22:00,58.0,47.0,30.10,SSE,150,1.0,3.0,67,0.00,,,0.00,0.000000,,2013-06-15 04:22:00,
2013-06-14 23:34:00,58.0,47.0,30.11,SE,126,1.0,3.0,68,0.00,,,0.00,0.000000,,2013-06-15 04:34:00,
2013-06-14 23:43:00,58.0,48.0,30.11,SE,129,1.0,3.0,69,0.00,,,0.00,0.000000,,2013-06-15 04:43:00,
2013-06-14 23:53:00,58.0,48.0,30.10,SE,136,1.0,3.0,69,0.00,,,0.00,0.000000,,2013-06-15 04:53:00,